[[{"header":{"parameterUnit":"m.s-1","parameterCategory":1,"la1":30.2991,"la2":30.254,"lo1":-89.0895,"lo2":-89.0444,"dy":0.0017,"dx":0.0017,"nx":28,"ny":28,"refTime":"2023-07-21T03:00:00:Z","depth":0,"parameterNumber":2,"parameterNumberName":"U-component_of_WINDS"},"data":[0,0,0,0,0,0,0,0,0,0,0,0,0,0,0,0,0,0,0,0,0,0,0,0,0,0,0,0,0,0,0,0,0,0,0,0,0,0,0,0,0,0,0,0,0,0,0,0,0,0,0,0,0,0,0,0,0,0,2.4366,2.4367,0,2.4425,2.4425,2.4426,2.4385,2.4383,2.4381,2.4379,2.4439,2.4443,2.4446,0,0,0,0,0,0,0,0,0,0,0,0,0,2.4217,2.422,2.4366,2.4367,2.4368,2.4425,2.4425,2.4426,2.4385,2.4383,2.438,2.4378,2.4438,2.4442,2.4446,0,0,0,0,0,0,0,0,0,0,0,0,0,2.428,2.4221,2.4366,2.4354,2.4354,2.4425,2.4425,2.4426,2.4385,2.4383,2.438,2.4377,2.4437,2.4442,2.4447,2.4533,0,0,2.4462,2.4464,0,0,0,0,0,0,0,0,2.4276,2.4285,2.4355,2.4355,2.4355,2.4395,2.4395,2.4462,2.4386,2.4373,2.4379,2.4376,2.4427,2.4432,2.4449,2.4536,2.4538,2.4462,2.4465,2.4468,2.4469,0,0,0,0,0,0,0,2.4272,2.4282,2.4389,2.4356,2.4356,2.4345,2.4351,2.4408,2.4415,2.4374,2.4371,2.4379,2.4426,2.4445,2.4451,2.4539,2.4462,2.4467,2.447,2.4472,2.4696,2.4699,0,0,0,0,0,0,2.4269,2.4279,2.4388,2.4391,2.4308,2.435,2.4357,2.4385,2.4414,2.4416,2.4381,2.4377,2.4438,2.4445,2.4453,2.4553,2.4468,2.4472,2.4475,2.4693,2.4696,2.47,0,0,0,0,0,0,2.4266,2.4279,2.4385,2.4334,2.4347,2.4356,2.4387,2.4387,2.4406,2.4419,2.442,2.4399,2.4436,2.4445,2.4512,2.4554,2.4474,2.4479,2.4689,2.4694,2.4698,2.4756,0,0,0,0,0,0,2.4262,2.4278,2.4312,2.4335,2.435,2.4445,2.439,2.439,2.4414,2.4409,2.4436,2.4438,2.4434,2.4505,2.4517,2.456,2.4483,2.4686,2.4691,2.4697,2.475,2.4762,2.4772,0,0,0,0,0,2.4257,2.4326,2.4313,2.4327,2.4392,2.4448,2.4456,2.445,2.4418,2.4451,2.4459,2.4437,2.4548,2.4512,2.4526,2.457,2.4683,2.469,2.4696,2.4745,2.476,2.4771,0,0,0,0,0,0,2.4308,2.4329,2.4315,2.4395,2.442,2.444,2.4482,2.4465,2.45,2.4493,2.4484,2.4491,2.456,2.4572,2.4532,2.4654,2.461,2.462,2.4643,2.4657,2.4667,2.4662,2.4487,0,0,0,0,0,2.4328,2.4372,2.4388,2.4457,2.447,2.4474,2.4498,2.4491,2.4516,2.4526,2.454,2.4565,2.4605,2.4632,2.467,2.4752,2.4756,2.4789,2.48,2.4808,2.4816,2.4858,2.4872,2.4721,2.4721,2.4721,0,0,2.4371,2.4388,2.4417,2.4468,2.4486,2.453,2.4483,2.4533,2.4565,2.4534,2.4597,2.4608,2.4635,2.4709,2.4743,2.4721,2.4859,2.4817,2.4824,2.4827,2.4866,2.488,2.4893,2.4726,2.4725,2.4724,0,0,2.4472,2.449,2.4548,2.4566,2.4594,2.4596,2.461,2.4633,2.4638,2.4702,2.4678,2.4717,2.4787,2.4806,2.4826,2.4931,2.4911,2.4943,2.4999,2.5039,2.5051,2.5061,2.5097,2.511,2.4952,2.4952,2.4952,0,2.4521,2.4588,2.458,2.463,2.4652,2.4625,2.4683,2.4701,2.474,2.4756,2.4731,2.4817,2.4834,2.491,2.4936,2.4953,2.4967,2.494,2.505,2.506,2.507,2.5103,2.5117,2.4955,2.4955,2.4955,2.4954,0,2.4646,2.4692,2.4735,2.4772,2.4799,2.4853,2.4852,2.4881,2.4871,2.4875,2.4938,2.4957,2.4997,2.5015,2.5007,2.509,2.5076,2.5051,2.5007,2.5088,2.5119,2.5132,2.4961,2.4959,2.4958,2.4957,0,0,2.4781,2.4811,2.4827,2.4842,2.487,2.4905,2.4957,2.4995,2.5018,2.5046,2.5087,2.5146,2.5123,2.5144,2.5138,2.5174,2.5252,2.5144,2.5144,2.5162,2.5342,2.5359,2.5374,2.524,2.5242,2.5244,2.5339,0,2.488,2.497,2.4964,2.5048,2.5089,2.5063,2.5108,2.5129,2.5134,2.5169,2.5174,2.5215,2.5182,2.5194,2.5229,2.5236,2.5288,2.5229,2.5277,2.5279,2.5269,2.5391,2.541,2.5499,2.5352,2.5354,2.5355,0,2.5009,2.5039,2.5128,2.5146,2.5163,2.5204,2.5237,2.5271,2.5294,2.5295,2.5318,2.5305,2.5355,2.5311,2.5379,2.5339,2.5358,2.5365,2.5368,2.5371,2.5321,2.5395,2.5527,2.554,2.5375,2.5373,2.5372,0,2.5095,2.5158,2.5218,2.5233,2.5257,2.5285,2.5297,2.5317,2.534,2.5369,2.5383,2.5418,2.5437,2.5463,2.5459,2.5428,2.5528,2.5484,2.5529,2.5529,2.555,2.5549,2.5685,2.5566,2.5566,2.5566,2.5565,0,2.5206,2.526,2.5257,2.5294,2.5353,2.5345,2.5403,2.5412,2.5429,2.5466,2.5447,2.5482,2.5475,2.551,2.5507,2.5563,2.5572,2.5573,2.5571,2.5574,2.5573,2.5585,2.5578,2.5569,2.5569,2.5568,2.5567,0,2.5312,2.5312,2.5375,2.5393,2.5398,2.5441,2.5455,2.5489,2.5492,2.5539,2.5549,2.5553,2.5593,2.5592,2.5637,2.5635,2.5703,2.5695,2.5695,2.5693,2.5736,2.5731,2.5884,2.5902,2.5773,2.5774,2.5776,0,2.5382,2.5423,2.5444,2.5467,2.548,2.5518,2.554,2.5533,2.5557,2.5584,2.5615,2.5652,2.5682,2.5746,2.5753,2.5787,2.5778,2.5829,2.5783,2.5783,2.5776,2.5773,2.5776,2.5838,2.5839,2.584,2.5841,0,2.5505,2.5502,2.5535,2.5568,2.5595,2.562,2.5644,2.5664,2.5659,2.5686,2.5726,2.5749,2.5794,2.5831,2.5863,2.5874,2.5856,2.5856,2.5867,2.5869,2.5866,2.5866,2.5717,2.5852,2.5851,2.585,2.585,2.5849,2.5593,2.5627,2.5647,2.5683,2.57,2.5721,2.5753,2.5759,2.5792,2.5828,2.5822,2.5865,2.5885,2.5926,2.594,2.5973,2.5955,2.5973,2.5977,2.5981,2.5985,2.5863,2.598,2.5979,2.5979,2.5979,2.5979,0,2.5713,2.5724,2.5758,2.579,2.5818,2.5799,2.5823,2.5848,2.5887,2.5907,2.5935,2.598,2.6015,2.6024,2.6057,2.6082,2.6074,2.6091,2.6088,2.609,2.6,2.5986,2.6096,2.6096,2.6096,2.6096,2.6096,2.6096,2.5779,2.5834,2.5834,2.5896,2.5907,2.5949,2.5964,2.5983,2.5998,2.6049,2.6077,2.6083,2.6097,2.6131,2.6162,2.6164,2.6176,2.6195,2.6193,2.6109,2.6097,2.6086,2.6072,2.6198,2.6198,2.628,2.6281,2.6281]},{"header":{"parameterUnit":"m.s-1","parameterCategory":1,"la1":30.2991,"la2":30.254,"lo1":-89.0895,"lo2":-89.0444,"dy":0.0017,"dx":0.0017,"nx":28,"ny":28,"refTime":"2023-07-21T03:00:00:Z","depth":0,"parameterNumber":3,"parameterNumberName":"V-component_of_WINDS"},"data":[0,0,0,0,0,0,0,0,0,0,0,0,0,0,0,0,0,0,0,0,0,0,0,0,0,0,0,0,0,0,0,0,0,0,0,0,0,0,0,0,0,0,0,0,0,0,0,0,0,0,0,0,0,0,0,0,0,0,5.8564,5.8565,0,5.86,5.86,5.86,5.8514,5.8511,5.8508,5.8506,5.8537,5.854,5.8544,0,0,0,0,0,0,0,0,0,0,0,0,0,5.8416,5.842,5.8564,5.8565,5.8565,5.8599,5.86,5.86,5.8514,5.8511,5.8508,5.8505,5.8536,5.854,5.8544,0,0,0,0,0,0,0,0,0,0,0,0,0,5.8469,5.8421,5.8564,5.8526,5.8523,5.8599,5.86,5.8601,5.8515,5.8511,5.8507,5.8503,5.8535,5.854,5.8545,5.8657,0,0,5.856,5.8562,0,0,0,0,0,0,0,0,5.8466,5.8474,5.8532,5.8529,5.8526,5.8548,5.8559,5.8619,5.8516,5.8518,5.8506,5.8501,5.8544,5.8548,5.8563,5.8659,5.866,5.856,5.8563,5.8566,5.8567,0,0,0,0,0,0,0,5.8463,5.8472,5.8578,5.8532,5.8529,5.8506,5.8509,5.857,5.8553,5.8518,5.8511,5.8517,5.8541,5.8559,5.8563,5.866,5.856,5.8565,5.8568,5.857,5.8848,5.8852,0,0,0,0,0,0,5.8465,5.847,5.8577,5.8579,5.8486,5.8512,5.8515,5.8545,5.8552,5.855,5.852,5.8513,5.8552,5.8557,5.8564,5.8695,5.8566,5.857,5.8573,5.8844,5.8849,5.8854,0,0,0,0,0,0,5.8462,5.8475,5.8575,5.8523,5.8534,5.8519,5.8553,5.8548,5.8565,5.8555,5.855,5.8542,5.8549,5.8557,5.8635,5.8695,5.8573,5.8577,5.8839,5.8845,5.8851,5.8959,0,0,0,0,0,0,5.8458,5.8474,5.8519,5.8525,5.8537,5.8647,5.8557,5.8552,5.8575,5.8565,5.8573,5.8571,5.8546,5.8628,5.864,5.87,5.8581,5.8833,5.8842,5.8849,5.895,5.8968,5.8984,0,0,0,0,0,5.8453,5.8547,5.8521,5.8535,5.8592,5.8651,5.8658,5.863,5.858,5.8623,5.8616,5.857,5.8687,5.8636,5.8649,5.8712,5.8829,5.8839,5.8849,5.8942,5.8965,5.8984,0,0,0,0,0,0,5.8547,5.8547,5.8519,5.8618,5.8635,5.8637,5.869,5.8655,5.8685,5.8675,5.8637,5.8639,5.8724,5.8725,5.8669,5.882,5.8749,5.8762,5.8816,5.8837,5.8854,5.8851,5.8585,0,0,0,0,0,5.8579,5.8629,5.8626,5.8713,5.8724,5.8706,5.873,5.8707,5.8723,5.8729,5.8728,5.8744,5.8783,5.8811,5.8847,5.895,5.8949,5.8999,5.9016,5.9031,5.9042,5.9095,5.9116,5.8886,5.8886,5.8886,0,0,5.8646,5.8652,5.8686,5.8732,5.8743,5.8793,5.8712,5.8769,5.8805,5.8737,5.8811,5.881,5.8825,5.8916,5.8956,5.892,5.9105,5.9043,5.9054,5.9058,5.9107,5.9129,5.9148,5.8893,5.8891,5.889,0,0,5.8793,5.8804,5.8878,5.8891,5.8908,5.8896,5.8914,5.892,5.8918,5.8991,5.8941,5.8982,5.9053,5.9065,5.908,5.9232,5.9191,5.9245,5.9334,5.9386,5.9404,5.942,5.9473,5.9492,5.9256,5.9257,5.9257,0,5.8874,5.895,5.892,5.898,5.9001,5.8943,5.9016,5.9029,5.9057,5.9072,5.9032,5.9118,5.9124,5.9216,5.9253,5.9268,5.9286,5.9243,5.9404,5.942,5.9434,5.9484,5.9504,5.9263,5.9262,5.9261,5.9261,0,5.9047,5.91,5.9156,5.9187,5.9214,5.9281,5.9259,5.929,5.9264,5.9255,5.9329,5.9335,5.937,5.9391,5.9366,5.9479,5.9456,5.9411,5.9338,5.9463,5.9509,5.9528,5.9272,5.927,5.9268,5.9266,0,0,5.9254,5.9267,5.9288,5.93,5.9316,5.9355,5.9418,5.9454,5.9481,5.9502,5.9552,5.9613,5.9571,5.9589,5.9565,5.9611,5.9729,5.9559,5.9559,5.9589,5.9852,5.9885,5.9907,5.9702,5.9705,5.9708,5.985,0,5.9398,5.9508,5.9482,5.959,5.9637,5.9583,5.9637,5.9651,5.9645,5.9682,5.9674,5.9717,5.966,5.967,5.9713,5.9705,5.978,5.9695,5.9746,5.9749,5.9743,5.9932,5.9967,6.01,5.9868,5.9871,5.9873,0,5.9581,5.9611,5.9724,5.9731,5.9749,5.9799,5.9829,5.9867,5.9881,5.9873,5.9893,5.986,5.9919,5.9848,5.9929,5.9871,5.9891,5.989,5.9895,5.9897,5.9818,5.9938,6.0142,6.0162,5.9901,5.9899,5.9897,0,5.9719,5.9787,5.9863,5.9875,5.9886,5.9921,5.9927,5.9938,5.9961,5.9987,6.0001,6.0034,6.0051,6.0077,6.0052,6.0003,6.0137,6.0063,6.013,6.013,6.0159,6.0157,6.0368,6.0175,6.0174,6.0174,6.0173,0,5.9882,5.9953,5.9925,5.9971,6.0048,6.0017,6.0094,6.0093,6.0103,6.0146,6.0101,6.0143,6.0109,6.0147,6.0128,6.0197,6.0206,6.0199,6.0193,6.0203,6.0203,6.0214,6.0203,6.0179,6.0178,6.0177,6.0176,0,6.0049,6.0033,6.0112,6.0115,6.0118,6.0174,6.0176,6.0218,6.0208,6.0264,6.0275,6.0259,6.0302,6.0281,6.0325,6.0312,6.0401,6.0383,6.0396,6.0391,6.0458,6.0452,6.0682,6.071,6.05,6.0502,6.0504,0,6.0153,6.0206,6.0216,6.0243,6.0252,6.0296,6.0319,6.0291,6.0317,6.0337,6.0376,6.0415,6.0445,6.0515,6.0506,6.054,6.0521,6.06,6.0526,6.0533,6.052,6.0517,6.0521,6.0614,6.0616,6.0618,6.062,0,6.034,6.0329,6.0366,6.04,6.043,6.0455,6.0476,6.05,6.0472,6.0503,6.0547,6.057,6.0615,6.0654,6.0683,6.0686,6.0648,6.0644,6.0661,6.067,6.0675,6.0672,6.0435,6.0638,6.0636,6.0635,6.0634,6.0633,6.0477,6.0521,6.0535,6.0577,6.059,6.061,6.065,6.0645,6.0682,6.0717,6.0698,6.0749,6.076,6.0795,6.0804,6.0842,6.081,6.0835,6.0841,6.0847,6.0856,6.0671,6.0847,6.0847,6.0846,6.0846,6.0845,0,6.066,6.0666,6.0705,6.0736,6.0769,6.0732,6.0753,6.0782,6.0828,6.0843,6.0873,6.0923,6.096,6.0955,6.0988,6.102,6.1003,6.1029,6.1026,6.1027,6.0883,6.0864,6.1042,6.1042,6.1042,6.1042,6.1042,6.1042,6.0759,6.0831,6.0822,6.09,6.0905,6.0956,6.097,6.0988,6.1,6.1058,6.1089,6.1086,6.1092,6.1126,6.1158,6.1155,6.1169,6.1202,6.1192,6.1057,6.1037,6.1019,6.1001,6.1205,6.1205,6.1333,6.1334,6.1335]}]]